Weather History for Three Rivers, MI

Change the Weather History Date:

Tuesday, February 18, 2014

  Actual Average Record
Temperature  
Mean Temperature 34 °F -  
Max Temperature 43 °F 36 °F 62 °F (1961)
Min Temperature 26 °F 19 °F -10 °F (1978)
Degree Days  
Heating Degree Days 30    
Moisture  
Dew Point 24 °F    
Average Humidity 68    
Maximum Humidity 81    
Minimum Humidity 54    
Precipitation  
Precipitation 0.00 in - - ()
Sea Level Pressure  
Sea Level Pressure 29.83 in    
Wind  
Wind Speed 14 mph (SW)    
Max Wind Speed 26 mph    
Max Gust Speed 36 mph    
Visibility 8 miles    
Events Snow    
Averages and records for this station are not official NWS values.
T = Trace of Precipitation, MM = Missing Value Source: NWS Daily Summary

Daily Weather History Graph

Daily Weather History Graph

Search for Another Location

Airport:

Trip Planner

Search our weather history database for the weather conditions in past years. The results will help you decide how hot, cold, wet, or windy it might be!

Date:

Astronomy

Feb. 18, 2014 Rise Set
Actual Time 7:34 AM EST 6:19 PM EST
Civil Twilight 7:05 AM EST 6:47 PM EST
Nautical Twilight 6:33 AM EST 7:20 PM EST
Astronomical Twilight 6:00 AM EST 7:52 PM EST
Moon 10:16 PM EST (2/18) 9:01 AM EST (2/18)
Length of Visible Light 11h 42m
Length of Day
10h 45m
Waning Gibbous, 87% of the Moon is Illuminated
Feb 18
Waning Gibbous
Feb 22
Last Quarter
Mar 1
New
Mar 8
First Quarter
Mar 16
Full

Hourly Weather History & Observations

Time (EST) Temp. Windchill Dew Point Humidity Pressure Visibility Wind Dir Wind Speed Gust Speed Precip Events Conditions
12:15 AM 26.1 °F 12.7 °F 21.0 °F 81% 29.68 in 5.0 mi West 18.4 mph 26.5 mph N/A Snow Light Snow
12:35 AM 26.1 °F 13.1 °F 21.0 °F 81% 29.69 in 5.0 mi West 17.3 mph 26.5 mph N/A Snow Light Snow
12:55 AM 26.1 °F 12.0 °F 21.0 °F 81% 29.70 in 4.0 mi West 20.7 mph 25.3 mph N/A Snow Light Snow
1:14 AM 26.2 °F 13.8 °F 21.2 °F 81% 29.71 in 5.0 mi WNW 16.1 mph 24.2 mph N/A Snow Light Snow
1:35 AM 26.2 °F 13.4 °F 21.0 °F 81% 29.73 in 7.0 mi West 17.3 mph 23.0 mph N/A   Overcast
1:55 AM 26.2 °F 12.6 °F 20.8 °F 80% 29.74 in 7.0 mi West 19.6 mph 25.3 mph N/A   Overcast
2:15 AM 26.2 °F 13.0 °F 20.8 °F 80% 29.76 in 5.0 mi West 18.4 mph 23.0 mph N/A   Haze
2:35 AM 26.2 °F 11.2 °F 20.3 °F 78% 29.78 in 5.0 mi West 24.2 mph 28.8 mph N/A   Haze
2:55 AM 26.4 °F 10.9 °F 20.1 °F 77% 29.80 in 4.0 mi WNW 26.5 mph 35.7 mph N/A   Haze
3:15 AM 26.4 °F 13.6 °F 19.9 °F 77% 29.81 in 5.0 mi WNW 17.3 mph 29.9 mph N/A   Haze
3:35 AM 26.4 °F 15.0 °F 20.3 °F 78% 29.82 in 7.0 mi West 13.8 mph 19.6 mph N/A   Overcast
3:55 AM 26.6 °F 15.2 °F 20.3 °F 77% 29.82 in 7.0 mi WNW 13.8 mph 21.9 mph N/A   Overcast
4:15 AM 26.6 °F 15.2 °F 20.1 °F 77% 29.85 in 7.0 mi WNW 13.8 mph - N/A   Overcast
4:35 AM 26.6 °F 13.1 °F 19.9 °F 76% 29.86 in 7.0 mi WNW 19.6 mph - N/A   Overcast
4:55 AM 26.6 °F 15.2 °F 19.9 °F 76% 29.87 in 7.0 mi WNW 13.8 mph 23.0 mph N/A   Overcast
5:15 AM 26.6 °F 14.7 °F 19.4 °F 74% 29.89 in 7.0 mi WNW 15.0 mph 19.6 mph N/A   Overcast
5:35 AM 26.6 °F 16.2 °F 19.8 °F 75% 29.91 in 7.0 mi WNW 11.5 mph - N/A   Overcast
5:54 AM 26.8 °F 15.9 °F 19.8 °F 75% 29.92 in 7.0 mi West 12.7 mph 17.3 mph N/A   Overcast
6:15 AM 26.8 °F 16.5 °F 19.8 °F 75% 29.92 in 7.0 mi West 11.5 mph - N/A   Overcast
6:35 AM 26.6 °F 14.7 °F 19.6 °F 75% 29.93 in 10.0 mi WNW 15.0 mph - N/A   Overcast
6:54 AM 26.6 °F 15.2 °F 20.1 °F 77% 29.94 in 10.0 mi WNW 13.8 mph - N/A   Overcast
7:15 AM 26.6 °F 20.0 °F 20.1 °F 77% 29.94 in 7.0 mi West 5.8 mph - N/A   Overcast
7:35 AM 26.6 °F 17.5 °F 20.1 °F 77% 29.94 in 10.0 mi West 9.2 mph - N/A   Overcast
7:55 AM 26.6 °F 20.0 °F 19.8 °F 75% 29.95 in 7.0 mi West 5.8 mph - N/A   Overcast
8:15 AM 26.4 °F 18.9 °F 19.4 °F 75% 29.96 in 7.0 mi West 6.9 mph - N/A   Overcast
8:35 AM 26.6 °F 19.1 °F 19.4 °F 74% 29.97 in 7.0 mi West 6.9 mph - N/A   Overcast
8:55 AM 27.0 °F 21.6 °F 19.4 °F 73% 29.97 in 7.0 mi West 4.6 mph - N/A   Overcast
9:15 AM 27.0 °F 21.6 °F 19.4 °F 73% 29.98 in 7.0 mi SW 4.6 mph - N/A   Overcast
9:35 AM 27.5 °F 19.3 °F 19.9 °F 73% 29.98 in 7.0 mi WSW 8.1 mph - N/A   Overcast
9:55 AM 27.1 °F 18.2 °F 19.6 °F 73% 30.00 in 7.0 mi WSW 9.2 mph 16.1 mph N/A   Overcast
10:15 AM 28.2 °F 21.0 °F 19.6 °F 70% 30.00 in 7.0 mi SSW 6.9 mph - N/A   Scattered Clouds
10:35 AM 27.5 °F 16.8 °F 19.9 °F 73% 30.00 in 7.0 mi SSW 12.7 mph - N/A   Clear
10:55 AM 28.2 °F 20.2 °F 20.5 °F 73% 29.98 in 7.0 mi SSW 8.1 mph - N/A   Clear
11:15 AM 28.9 °F 19.2 °F 21.2 °F 73% 29.98 in 5.0 mi South 11.5 mph - N/A   Haze
11:35 AM 29.3 °F 19.1 °F 22.8 °F 77% 29.98 in 5.0 mi South 12.7 mph - N/A   Haze
11:55 AM 30.9 °F 22.8 °F 23.4 °F 74% 29.96 in 5.0 mi SSW 9.2 mph - N/A   Haze
12:15 PM 32.0 °F 22.5 °F 24.1 °F 73% 29.96 in 5.0 mi South 12.7 mph - N/A   Haze
12:35 PM 32.4 °F 24.6 °F 24.8 °F 74% 29.94 in 5.0 mi South 9.2 mph - N/A   Haze
12:55 PM 33.8 °F 25.8 °F 25.2 °F 71% 29.92 in 7.0 mi South 10.4 mph - N/A   Clear
1:14 PM 34.7 °F 25.9 °F 25.5 °F 69% 29.91 in 5.0 mi South 12.7 mph 16.1 mph N/A   Haze
1:35 PM 35.4 °F 28.4 °F 25.7 °F 68% 29.89 in 5.0 mi SSE 9.2 mph - N/A   Haze
1:54 PM 36.5 °F 29.2 °F 26.2 °F 66% 29.88 in 7.0 mi South 10.4 mph - N/A   Clear
2:15 PM 37.6 °F 31.0 °F 26.1 °F 63% 29.87 in 10.0 mi South 9.2 mph 17.3 mph N/A   Clear
2:35 PM 38.7 °F 31.4 °F 26.1 °F 61% 29.85 in 10.0 mi SSE 11.5 mph 17.3 mph N/A   Clear
2:55 PM 39.6 °F 31.7 °F 26.1 °F 58% 29.84 in 10.0 mi South 13.8 mph - N/A   Clear
3:15 PM 40.6 °F 33.0 °F 25.7 °F 55% 29.82 in 10.0 mi South 13.8 mph 18.4 mph N/A   Clear
3:35 PM 41.0 °F 33.1 °F 26.1 °F 55% 29.79 in 10.0 mi South 15.0 mph 18.4 mph N/A   Clear
3:55 PM 41.4 °F 33.3 °F 26.4 °F 55% 29.80 in 10.0 mi South 16.1 mph 19.6 mph N/A   Clear
4:15 PM 41.4 °F 33.6 °F 26.6 °F 56% 29.80 in 10.0 mi South 15.0 mph - N/A   Clear
4:35 PM 41.5 °F 34.2 °F 27.0 °F 56% 29.77 in 10.0 mi South 13.8 mph - N/A   Clear
4:55 PM 42.3 °F 35.5 °F 26.8 °F 54% 29.77 in 10.0 mi South 12.7 mph 18.4 mph N/A   Clear
5:15 PM 42.1 °F 34.5 °F 27.1 °F 55% 29.75 in 10.0 mi South 15.0 mph 18.4 mph N/A   Clear
5:35 PM 42.1 °F 36.1 °F 27.3 °F 56% 29.76 in 10.0 mi South 10.4 mph - N/A   Clear
5:55 PM 41.2 °F 35.0 °F 27.9 °F 59% 29.76 in 10.0 mi South 10.4 mph - N/A   Clear
6:15 PM 41.9 °F 34.6 °F 27.5 °F 57% 29.75 in 10.0 mi South 13.8 mph - N/A   Clear
6:35 PM 41.9 °F 34.0 °F 27.5 °F 57% 29.73 in 10.0 mi South 16.1 mph - N/A   Clear
6:55 PM 41.9 °F 35.0 °F 27.5 °F 57% 29.74 in 10.0 mi South 12.7 mph - N/A   Clear
7:15 PM 41.2 °F 34.1 °F 27.9 °F 59% 29.74 in 10.0 mi South 12.7 mph - N/A   Clear
7:35 PM 41.0 °F 33.5 °F 28.0 °F 60% 29.74 in 10.0 mi South 13.8 mph 18.4 mph N/A   Clear
7:55 PM 41.0 °F 33.9 °F 28.0 °F 60% 29.74 in 10.0 mi South 12.7 mph - N/A   Scattered Clouds
8:14 PM 40.8 °F 34.5 °F 27.5 °F 59% 29.73 in 10.0 mi South 10.4 mph 17.3 mph N/A   Scattered Clouds
8:35 PM 40.5 °F 34.6 °F 27.7 °F 60% 29.72 in 10.0 mi South 9.2 mph - N/A   Clear
8:55 PM 41.0 °F 34.3 °F 27.5 °F 59% 29.72 in 10.0 mi South 11.5 mph - N/A   Clear
9:15 PM 40.5 °F 34.6 °F 27.7 °F 60% 29.71 in 10.0 mi South 9.2 mph - N/A   Clear
9:35 PM 41.4 °F 34.7 °F 27.5 °F 58% 29.70 in 10.0 mi SSW 11.5 mph - N/A   Clear
9:55 PM 42.4 °F 35.7 °F 27.3 °F 55% 29.69 in 10.0 mi SSW 12.7 mph - N/A   Clear
10:15 PM 42.3 °F 35.1 °F 27.3 °F 56% 29.69 in 10.0 mi SSW 13.8 mph 19.6 mph N/A   Clear
10:35 PM 43.0 °F 36.4 °F 27.1 °F 54% 29.69 in 10.0 mi SW 12.7 mph - N/A   Clear
10:55 PM 42.1 °F 35.2 °F 27.5 °F 56% 29.68 in 10.0 mi SSW 12.7 mph - N/A   Clear
11:15 PM 41.9 °F 35.4 °F 27.9 °F 58% 29.67 in 10.0 mi SSW 11.5 mph - N/A   Clear
11:35 PM 41.0 °F 35.2 °F 28.2 °F 60% 29.67 in 10.0 mi SSW 9.2 mph - N/A   Scattered Clouds
11:55 PM 40.5 °F 34.6 °F 28.4 °F 62% 29.66 in 10.0 mi SSW 9.2 mph - N/A   Scattered Clouds